User: anonymous   Login
Location: Enid
(36.3960°N, 97.8780°W)
Time: 16:41:22
(UTC-05:00)
Language:

Hubble Space Telescope - Orbit

View from above orbital plane
View from above orbital plane
View from above satellite
View from above satellite

Ground track
Ground track

The orbit data is extracted from the following two-line orbital elements,

1 20580U 90037B   16210.67560185 +.00000569 +00000-0 +24415-4 0  9992
2 20580 028.4709 344.7277 0002618 297.1230 262.9541 15.08436933241291
Epoch (UTC): 28 July 2016 16:12:52
Eccentricity: 0.0002618
inclination: 28.4709°
perigee height: 539 km
apogee height: 543 km
right ascension of ascending node: 344.7277°
argument of perigee: 297.1230°
revolutions per day: 15.08436933
mean anomaly at epoch: 262.9541°
orbit number at epoch: 24129

The dashed part of the orbit path shows where the satellite is in the earth's shadow,  

DLR